Grafton, ND

4:38 PM CST on December 06, 2016 (GMT -0600)
Grafton Municipal

Weather History for KGAF - December, 2012

Change the Weather History Date:

Friday, December 21, 2012

  Actual Average Record
Temperature  
Mean Temperature 6 °F -  
Max Temperature 8 °F 16 °F 44 °F (1979)
Min Temperature 5 °F -1 °F -32 °F (1963)
Degree Days  
Heating Degree Days 58    
Moisture  
Dew Point 3 °F    
Average Humidity 84    
Maximum Humidity 92    
Minimum Humidity 78    
Precipitation  
Precipitation 0.00 in - - ()
Sea Level Pressure  
Sea Level Pressure 30.19 in    
Wind  
Wind Speed 8 mph (South)    
Max Wind Speed 17 mph    
Max Gust Speed 22 mph    
Visibility 10 miles    
Events Snow    
Averages and records for this station are not official NWS values.
T = Trace of Precipitation, MM = Missing Value Source: NWS Daily Summary

Daily Weather History Graph

Daily Weather History Graph

Search for Another Location

Airport or City:

Trip Planner

Search our weather history database for the weather conditions in past years. The results will help you decide how hot, cold, wet, or windy it might be!

Date:

Astronomy

Dec. 21, 2012 Rise Set
Actual Time 8:18 AM CST 4:37 PM CST
Civil Twilight 7:41 AM CST 5:14 PM CST
Nautical Twilight 7:01 AM CST 5:54 PM CST
Astronomical Twilight 6:23 AM CST 6:32 PM CST
Moon 12:43 PM CST (12/21) 1:46 AM CST (12/21)
Length of Visible Light 9h 32m
Length of Day
8h 18m
Waxing Gibbous, 65% of the Moon is Illuminated
Dec 21
Waxing Gibbous
Dec 28
Full
Jan 4
Last Quarter
Jan 11
New
Jan 18
First Quarter

Hourly Weather History & Observations

Time (CST) Temp. Windchill Dew Point Humidity Pressure Visibility Wind Dir Wind Speed Gust Speed Precip Events Conditions
12:15 AM 8.6 °F -3.7 °F 5.0 °F 85% 30.25 in 10.0 mi North 8.1 mph - N/A   Overcast
12:35 AM 8.6 °F -3.7 °F 5.0 °F 85% 30.25 in 10.0 mi NNW 8.1 mph - N/A   Overcast
12:55 AM 8.6 °F -2.6 °F 5.0 °F 85% 30.26 in 10.0 mi NW 6.9 mph - N/A   Overcast
1:15 AM 8.6 °F -1.3 °F 5.0 °F 85% 30.25 in 10.0 mi NW 5.8 mph - N/A   Overcast
1:35 AM 8.6 °F 0.1 °F 5.0 °F 85% 30.25 in 10.0 mi WNW 4.6 mph - N/A   Overcast
1:55 AM 8.6 °F 0.1 °F 5.0 °F 85% 30.24 in 9.0 mi NNW 4.6 mph - N/A Snow Light Snow
2:15 AM 8.6 °F -1.3 °F 5.0 °F 85% 30.25 in 10.0 mi NW 5.8 mph - N/A   Overcast
2:35 AM 8.6 °F -1.3 °F 5.0 °F 85% 30.26 in 10.0 mi NW 5.8 mph - N/A   Overcast
2:55 AM 8.6 °F -1.3 °F 5.0 °F 85% 30.26 in 10.0 mi NNW 5.8 mph - N/A   Overcast
3:15 AM 8.6 °F 2.0 °F 5.0 °F 85% 30.27 in 10.0 mi NW 3.5 mph - N/A   Overcast
3:35 AM 8.6 °F 2.0 °F 5.0 °F 85% 30.27 in 10.0 mi NW 3.5 mph - N/A   Overcast
3:55 AM 8.6 °F 2.0 °F 5.0 °F 85% 30.28 in 10.0 mi WNW 3.5 mph - N/A   Overcast
4:15 AM 8.6 °F - 5.0 °F 85% 30.27 in 10.0 mi Calm Calm - N/A   Overcast
4:35 AM 8.6 °F - 5.0 °F 85% 30.27 in 10.0 mi Calm Calm - N/A   Overcast
4:55 AM 6.8 °F - 5.0 °F 92% 30.27 in 10.0 mi Calm Calm - N/A   Overcast
5:15 AM 6.8 °F -0.1 °F 5.0 °F 92% 30.26 in 10.0 mi WSW 3.5 mph - N/A   Overcast
5:35 AM 6.8 °F -2.0 °F 5.0 °F 92% 30.26 in 10.0 mi SSE 4.6 mph - N/A   Overcast
5:55 AM 6.8 °F -0.1 °F 5.0 °F 92% 30.27 in 10.0 mi SW 3.5 mph - N/A   Overcast
6:15 AM 6.8 °F -0.1 °F 5.0 °F 92% 30.27 in 10.0 mi SW 3.5 mph - N/A   Overcast
6:35 AM 6.8 °F - 5.0 °F 92% 30.27 in 10.0 mi Calm Calm - N/A   Overcast
6:55 AM 6.8 °F -3.5 °F 5.0 °F 92% 30.27 in 10.0 mi SSW 5.8 mph - N/A   Overcast
7:15 AM 6.8 °F -0.1 °F 3.2 °F 85% 30.27 in 10.0 mi SSW 3.5 mph - N/A   Overcast
7:35 AM 5.0 °F -6.9 °F 3.2 °F 92% 30.27 in 10.0 mi SW 6.9 mph - N/A   Overcast
7:55 AM 5.0 °F -5.6 °F 3.2 °F 92% 30.27 in 10.0 mi SSW 5.8 mph - N/A   Overcast
8:15 AM 5.0 °F -4.1 °F 3.2 °F 92% 30.27 in 9.0 mi SSW 4.6 mph - N/A   Overcast
8:35 AM 5.0 °F -5.6 °F 1.4 °F 85% 30.27 in 8.0 mi South 5.8 mph - N/A   Overcast
8:55 AM 5.0 °F -8.1 °F 1.4 °F 85% 30.27 in 9.0 mi SSW 8.1 mph - N/A   Overcast
9:15 AM 5.0 °F -6.9 °F 1.4 °F 85% 30.26 in 8.0 mi SSE 6.9 mph - N/A   Overcast
9:35 AM 5.0 °F -10.0 °F 3.2 °F 92% 30.25 in 7.0 mi South 10.4 mph - N/A   Overcast
9:55 AM 6.8 °F -6.9 °F 3.2 °F 85% 30.27 in 6.0 mi South 9.2 mph - N/A   Overcast
10:15 AM 6.8 °F -7.8 °F 3.2 °F 85% 30.27 in 6.0 mi South 10.4 mph - N/A   Overcast
10:35 AM 6.8 °F -7.8 °F 3.2 °F 85% 30.28 in 6.0 mi SSW 10.4 mph - N/A   Overcast
10:55 AM 6.8 °F -9.3 °F 1.4 °F 79% 30.25 in 8.0 mi South 12.7 mph - N/A   Overcast
11:15 AM 6.8 °F -9.3 °F 1.4 °F 79% 30.25 in 8.0 mi South 12.7 mph - N/A   Overcast
11:35 AM 6.8 °F -6.9 °F 1.4 °F 79% 30.24 in 9.0 mi South 9.2 mph - N/A   Overcast
11:55 AM 6.8 °F -10.0 °F 1.4 °F 79% 30.23 in 10.0 mi South 13.8 mph - N/A   Mostly Cloudy
12:15 PM 6.8 °F -8.6 °F 3.2 °F 85% 30.23 in 10.0 mi South 11.5 mph - N/A   Scattered Clouds
12:35 PM 6.8 °F -7.8 °F 3.2 °F 85% 30.22 in 8.0 mi South 10.4 mph - N/A   Scattered Clouds
12:55 PM 8.6 °F -7.0 °F 3.2 °F 79% 30.21 in 10.0 mi South 12.7 mph - N/A   Scattered Clouds
1:15 PM 8.6 °F -7.0 °F 3.2 °F 79% 30.21 in 10.0 mi South 12.7 mph - N/A   Partly Cloudy
1:35 PM 8.6 °F -7.7 °F 5.0 °F 85% 30.20 in 10.0 mi South 13.8 mph - N/A   Clear
1:55 PM 8.6 °F -5.5 °F 5.0 °F 85% 30.19 in 9.0 mi South 10.4 mph - N/A   Scattered Clouds
2:15 PM 8.6 °F -5.5 °F 5.0 °F 85% 30.18 in 10.0 mi SSE 10.4 mph - N/A   Partly Cloudy
2:35 PM 8.6 °F -6.3 °F 3.2 °F 79% 30.17 in 10.0 mi SSE 11.5 mph - N/A   Clear
2:55 PM 8.6 °F -5.5 °F 3.2 °F 79% 30.17 in 9.0 mi SSE 10.4 mph - N/A   Clear
3:15 PM 6.8 °F -9.3 °F 3.2 °F 85% 30.16 in 10.0 mi SSE 12.7 mph - N/A   Clear
3:35 PM 6.8 °F -8.6 °F 3.2 °F 85% 30.15 in 10.0 mi SSE 11.5 mph - N/A   Clear
3:55 PM 6.8 °F -7.8 °F 3.2 °F 85% 30.16 in 10.0 mi SSE 10.4 mph - N/A   Clear
4:15 PM 6.8 °F -9.3 °F 1.4 °F 79% 30.14 in 10.0 mi SSE 12.7 mph - N/A   Clear
4:35 PM 5.0 °F -11.6 °F 1.4 °F 85% 30.14 in 9.0 mi SSE 12.7 mph - N/A   Clear
4:55 PM 5.0 °F -10.8 °F 1.4 °F 85% 30.13 in 9.0 mi SSE 11.5 mph - N/A   Clear
5:35 PM 5.0 °F -8.1 °F -0.4 °F 78% 30.14 in 10.0 mi South 8.1 mph - N/A   Clear
5:55 PM 5.0 °F -9.1 °F -0.4 °F 78% 30.14 in 10.0 mi South 9.2 mph - N/A   Clear
6:15 PM 5.0 °F -10.8 °F 1.4 °F 85% 30.13 in 10.0 mi SSE 11.5 mph - N/A   Clear
6:35 PM 5.0 °F -12.3 °F 1.4 °F 85% 30.12 in 10.0 mi South 13.8 mph 18.4 mph N/A   Clear
6:55 PM 5.0 °F -12.3 °F 1.4 °F 85% 30.11 in 10.0 mi South 13.8 mph - N/A   Clear
7:15 PM 5.0 °F -13.6 °F 1.4 °F 85% 30.10 in 10.0 mi South 16.1 mph 21.9 mph N/A   Clear
7:35 PM 6.8 °F -11.8 °F 1.4 °F 79% 30.08 in 10.0 mi South 17.3 mph - N/A   Clear
7:55 PM 6.8 °F -10.7 °F 1.4 °F 79% 30.08 in 10.0 mi South 15.0 mph - N/A   Clear
8:15 PM 6.8 °F -11.3 °F 1.4 °F 79% 30.08 in 10.0 mi South 16.1 mph - N/A   Clear
8:35 PM 6.8 °F -10.7 °F 1.4 °F 79% 30.07 in 10.0 mi South 15.0 mph - N/A   Clear
8:55 PM 6.8 °F -8.6 °F 1.4 °F 79% 30.07 in 10.0 mi South 11.5 mph - N/A   Clear
9:15 PM 6.8 °F -10.7 °F 3.2 °F 85% 30.06 in 10.0 mi South 15.0 mph - N/A   Clear
9:35 PM 6.8 °F -8.6 °F 1.4 °F 79% 30.06 in 10.0 mi South 11.5 mph - N/A   Clear
9:55 PM 6.8 °F -8.6 °F 1.4 °F 79% 30.07 in 10.0 mi South 11.5 mph - N/A   Clear
10:15 PM 5.0 °F -9.1 °F 1.4 °F 85% 30.07 in 10.0 mi South 9.2 mph - N/A   Clear
10:35 PM 5.0 °F -9.1 °F 1.4 °F 85% 30.06 in 10.0 mi South 9.2 mph - N/A   Clear
10:55 PM 5.0 °F -8.1 °F -0.4 °F 78% 30.06 in 10.0 mi South 8.1 mph - N/A   Clear
11:15 PM 5.0 °F -9.1 °F -0.4 °F 78% 30.05 in 10.0 mi South 9.2 mph - N/A   Clear
11:35 PM 5.0 °F -9.1 °F -0.4 °F 78% 30.05 in 10.0 mi South 9.2 mph - N/A   Clear
11:55 PM 5.0 °F -9.1 °F -0.4 °F 78% 30.05 in 10.0 mi South 9.2 mph - N/A   Clear